"Pseudo-MPEC" for P112ejT

Created 2020 Jul 1 15:07:06 UT using Find_Orb

Click here for an explanation of pseudo-MPECs

 
 Astrometry: 
     P112ejT  C2020 06 28)@f@n@`??N_i!f_AstrometrySEnk[A4^yc5PQmauv'bpv\0o!9TF51
     P112ejT  C2020 06 28D:t]HsQ9TLMlKj(VBO=q%redacted;EYOuo_DJRRHmL+;F6.Tb5GF51
     P112ejT  C2020 06 28h%)D!X;s7:,ficlick%3XeO%lZt8K(l3q9UPBSRTIKkc1WSg]@noF51
     P112ejT  C2020 06 28`CheretRWHj(P6p!P%QLY)'(.LE@^R-AsUjYxd102U8kbqAhHH!,F51
     P112ejT ^C2020 06 29.58588220 47 10.556-39 31 05.88   ~6TJM 19.66GVNEOCP568
     P112ejT ^C2020 06 29.58682920 47 10.738-39 31 04.61   ~6TJM 19.66GVNEOCP568
     P112ejT  C2020 06 30)]:U\495v4.Q$A*BR:for.a,$RoexplanationuN7DvlPY)D4e3(F51
     P112ejT  C2020 06 30/p.:O)Dq[^ZBk^O:Z#+XSwb2`ks\F\S.w(8ASMZ3J%Ly?,VJ/!u[F51
     P112ejT KC2020 07 01fu:2Lve[MGMIT)hJ.n#'TY+rB,x=AmGXYt/D/\E6+y6hA;P5WCRbE23
     P112ejT KC2020 07 01;NHmFi2mkDL?SJ(joOHTDIn3BWtBrEfHhR;Yvgx*7N`x#/SuSjfxE23
     P112ejT KC2020 07 01JCrlpu7\wh99ZlHrLPXKTAX)t4M;3w8+D.Z[D2;2KUQ+!SWM*6x8E23

Station data:
(568) Mauna Kea  (N19.826116 W155.472200)  US/Hawaii.
(E23) Arcadia  (S33.621199 E151.071190)  Australia/NSW.
(F51) Pan-STARRS 1, Haleakala  (N20.707235 W156.255910)  US/Hawaii.
   Observers N. Primak, A. Schultz, S. Watters, J. Thiel, T. Goggia. Measurer
   PS1 Science Consortium. 1.8-m Ritchey-Chrétien + CCD.

Orbital elements:  P112ejT
   Perihelion 2020 Aug 2.724093 +/- 0.13 TT = 17:22:41 (JD 2459064.224093)
Epoch 2020 Jul  1.0 TT = JDT 2459031.5   Earth MOID: 0.1392   AutoNEOCP
M 349.41265709 +/- 0.21             (J2000 ecliptic)
n   0.32353357 +/- 0.00734          Peri.  357.07314 +/- 0.17
a   2.10146975 +/- 0.0318           Node   316.66029 +/- 0.052
e   0.4511879 +/- 0.00759           Incl.    6.55954 +/- 0.07
P   3.05                   H 21.6   G  0.15   U  9.4  
q 1.15331199 +/- 0.00154    Q 3.04962751 +/- 0.0631
From 11 observations 2020 June 28-July 1; mean residual 0".11
Residuals in arcseconds: 
200628 F51  .06-  .05-    200629 568  .09+  .02-    200701 E23  .26+  .14-    
200628 F51  .02+  .01-    200629 568  .09+  .02-    200701 E23  .01+  .19+    
200628 F51  .01+  .08+    200630 F51  .22-  .04-    200701 E23  .22-  .02-    
200628 F51  .06-  .02+    200630 F51  .05+  .02+    

Ephemerides (geocentric):
Date (UTC) HH   RA              Dec         delta   r     elong  mag " sig PA
---- -- -- --  -------------   -----------  ------ ------ -----  --- ---- ---
2020 07 01 15  20 54 23.644   -38 43 52.93  .21345 1.2031 148.1 19.8 .335 107
2020 07 01 16  20 54 32.494   -38 42 51.65  .21329 1.2030 148.1 19.8 .357 104
2020 07 01 17  20 54 41.346   -38 41 50.21  .21314 1.2029 148.1 19.8 .382 102
2020 07 01 18  20 54 50.199   -38 40 48.60  .21298 1.2027 148.1 19.8 .407 100
2020 07 01 19  20 54 59.052   -38 39 46.82  .21283 1.2026 148.1 19.8 .433  99
2020 07 01 20  20 55 07.906   -38 38 44.88  .21267 1.2025 148.1 19.8 .460  97
2020 07 01 21  20 55 16.761   -38 37 42.77  .21252 1.2024 148.1 19.8 .488  96
2020 07 01 22  20 55 25.616   -38 36 40.50  .21236 1.2023 148.1 19.8 .517  95
2020 07 01 23  20 55 34.472   -38 35 38.06  .21221 1.2021 148.1 19.8 .546  94
2020 07 02 00  20 55 43.329   -38 34 35.45  .21205 1.2020 148.1 19.8 .577  93
2020 07 02 01  20 55 52.187   -38 33 32.68  .21190 1.2019 148.1 19.8 .608  92
2020 07 02 02  20 56 01.045   -38 32 29.74  .21175 1.2018 148.2 19.8 .640  91
2020 07 02 03  20 56 09.905   -38 31 26.63  .21159 1.2016 148.2 19.8 .673  90
2020 07 02 04  20 56 18.764   -38 30 23.35  .21144 1.2015 148.2 19.8 .707  89
2020 07 02 05  20 56 27.625   -38 29 19.91  .21129 1.2014 148.2 19.8 .741  89
2020 07 02 06  20 56 36.486   -38 28 16.30  .21113 1.2013 148.2 19.8 .776  88
2020 07 02 07  20 56 45.347   -38 27 12.52  .21098 1.2011 148.2 19.8 .812  88
2020 07 02 08  20 56 54.210   -38 26 08.58  .21083 1.2010 148.2 19.8 .849  87
2020 07 02 09  20 57 03.073   -38 25 04.46  .21068 1.2009 148.2 19.8 .886  87
2020 07 02 10  20 57 11.936   -38 24 00.18  .21052 1.2008 148.2 19.8 .924  86
2020 07 02 11  20 57 20.800   -38 22 55.73  .21037 1.2007 148.2 19.8 .963  86
2020 07 02 12  20 57 29.665   -38 21 51.11  .21022 1.2005 148.2 19.8 1.00  86
2020 07 02 13  20 57 38.530   -38 20 46.32  .21007 1.2004 148.2 19.8 1.04  85
2020 07 02 14  20 57 47.396   -38 19 41.36  .20992 1.2003 148.3 19.8 1.08  85
2020 07 02 15  20 57 56.262   -38 18 36.24  .20976 1.2002 148.3 19.8 1.13  85
2020 07 02 16  20 58 05.128   -38 17 30.94  .20961 1.2000 148.3 19.8 1.17  84
2020 07 02 17  20 58 13.996   -38 16 25.48  .20946 1.1999 148.3 19.8 1.21  84
2020 07 02 18  20 58 22.863   -38 15 19.84  .20931 1.1998 148.3 19.8 1.25  84
2020 07 02 19  20 58 31.732   -38 14 14.04  .20916 1.1997 148.3 19.8 1.30  84
2020 07 02 20  20 58 40.600   -38 13 08.06  .20901 1.1996 148.3 19.8 1.34  83
2020 07 02 21  20 58 49.469   -38 12 01.92  .20886 1.1994 148.3 19.8 1.39  83
2020 07 02 22  20 58 58.339   -38 10 55.60  .20871 1.1993 148.3 19.8 1.44  83
2020 07 02 23  20 59 07.209   -38 09 49.11  .20856 1.1992 148.3 19.8 1.48  83
2020 07 03 00  20 59 16.079   -38 08 42.46  .20841 1.1991 148.3 19.8 1.53  82
2020 07 03 01  20 59 24.949   -38 07 35.63  .20826 1.1990 148.3 19.8 1.58  82
2020 07 03 02  20 59 33.820   -38 06 28.63  .20811 1.1988 148.4 19.8 1.63  82
2020 07 03 03  20 59 42.692   -38 05 21.46  .20796 1.1987 148.4 19.8 1.68  82
2020 07 03 04  20 59 51.564   -38 04 14.12  .20781 1.1986 148.4 19.8 1.73  82
2020 07 03 05  21 00 00.436   -38 03 06.61  .20766 1.1985 148.4 19.8 1.78  82
2020 07 03 06  21 00 09.308   -38 01 58.93  .20751 1.1984 148.4 19.8 1.84  82
2020 07 03 07  21 00 18.181   -38 00 51.07  .20737 1.1982 148.4 19.8 1.89  81
2020 07 03 08  21 00 27.054   -37 59 43.05  .20722 1.1981 148.4 19.8 1.94  81
2020 07 03 09  21 00 35.927   -37 58 34.85  .20707 1.1980 148.4 19.8 2.00  81
2020 07 03 10  21 00 44.800   -37 57 26.47  .20692 1.1979 148.4 19.8 2.05  81
2020 07 03 11  21 00 53.674   -37 56 17.93  .20677 1.1978 148.4 19.8 2.11  81
2020 07 03 12  21 01 02.548   -37 55 09.22  .20663 1.1977 148.4 19.8 2.17  81
2020 07 03 13  21 01 11.422   -37 54 00.33  .20648 1.1975 148.5 19.8 2.22  81
2020 07 03 14  21 01 20.296   -37 52 51.26  .20633 1.1974 148.5 19.8 2.28  81